Decatur, IL

7:15 PM CDT on July 26, 2017 (GMT -0500)
Decatur

Weather History for KDEC - October, 2014

Change the Weather History Date:

Tuesday, October 28, 2014

  Actual Average Record
Temperature  
Mean Temperature 59 °F 51 °F  
Max Temperature 71 °F 61 °F 78 °F (1999)
Min Temperature 47 °F 40 °F 26 °F (2013)
Degree Days  
Heating Degree Days 6 15  
Month to date heating degree days 256 300  
Since 1 July heating degree days 345 373  
Cooling Degree Days 0 0  
Month to date cooling degree days 14 14  
Year to date cooling degree days 1011 1043  
Growing Degree Days 10 (Base 50)    
Moisture  
Dew Point 45 °F    
Average Humidity 64    
Maximum Humidity 93    
Minimum Humidity 34    
Precipitation  
Precipitation 0.60 in 0.11 in 0.60 in (2014)
Month to date precipitation 4.96 2.94  
Year to date precipitation 32.81 32.14  
Sea Level Pressure  
Sea Level Pressure 29.92 in    
Wind  
Wind Speed 11 mph (West)    
Max Wind Speed 23 mph    
Max Gust Speed 32 mph    
Visibility 9 miles    
Events      
T = Trace of Precipitation, MM = Missing Value Source: NWS Daily Summary

Daily Weather History Graph

Daily Weather History Graph

Search for Another Location

Airport or City:

Trip Planner

Search our weather history database for the weather conditions in past years. The results will help you decide how hot, cold, wet, or windy it might be!

Date:

Astronomy

Oct. 28, 2014 Rise Set
Actual Time 7:19 AM CDT 5:58 PM CDT
Civil Twilight 6:51 AM CDT 6:25 PM CDT
Nautical Twilight 6:20 AM CDT 6:57 PM CDT
Astronomical Twilight 5:48 AM CDT 7:28 PM CDT
Moon 11:48 AM CDT (10/28) 10:03 PM CDT (10/28)
Length of Visible Light 11h 33m
Length of Day
10h 38m
Waxing Crescent, 24% of the Moon is Illuminated
Oct 28
Waxing Crescent
Oct 30
First Quarter
Nov 6
Full
Nov 14
Last Quarter
Nov 22
New

Hourly Weather History & Observations

Time (CDT) Temp. Dew Point Humidity Pressure Visibility Wind Dir Wind Speed Gust Speed Precip Events Conditions
12:54 AM 70.0 °F 55.0 °F 59% 29.74 in 10.0 mi SSW 16.1 mph - N/A   Partly Cloudy
1:54 AM 70.0 °F 55.0 °F 59% 29.74 in 10.0 mi SSW 15.0 mph - N/A   Mostly Cloudy
2:54 AM 64.0 °F 60.1 °F 87% 29.78 in 4.0 mi SW 15.0 mph 26.5 mph 0.12 in   Overcast
3:52 AM 62.6 °F 60.8 °F 94% 29.79 in 2.0 mi SW 17.3 mph - 0.29 in   Overcast
3:54 AM 63.0 °F 61.0 °F 93% 29.78 in 2.0 mi SW 16.1 mph - 0.31 in   Overcast
4:08 AM 62.1 °F 59.0 °F 90% 29.80 in 3.0 mi WNW 19.6 mph 29.9 mph 0.14 in   Overcast
4:16 AM 60.1 °F 55.9 °F 86% 29.80 in 5.0 mi WNW 16.1 mph 26.5 mph 0.15 in   Overcast
4:44 AM 59.0 °F 54.0 °F 83% 29.83 in 10.0 mi WNW 10.4 mph - 0.17 in   Overcast
4:54 AM 59.0 °F 54.0 °F 83% 29.82 in 10.0 mi NW 11.5 mph - 0.17 in   Overcast
5:54 AM 57.9 °F 52.0 °F 81% 29.87 in 10.0 mi WNW 11.5 mph - N/A   Overcast
6:54 AM 55.9 °F 46.9 °F 72% 29.88 in 10.0 mi WNW 11.5 mph - N/A   Overcast
7:54 AM 54.0 °F 45.0 °F 72% 29.93 in 10.0 mi West 6.9 mph - N/A   Clear
8:54 AM 54.0 °F 45.0 °F 72% 29.96 in 10.0 mi West 9.2 mph - N/A   Partly Cloudy
9:54 AM 55.0 °F 44.1 °F 67% 29.96 in 10.0 mi West 6.9 mph - N/A   Clear
10:54 AM 57.0 °F 43.0 °F 59% 29.98 in 10.0 mi WNW 13.8 mph 23.0 mph N/A   Clear
11:54 AM 59.0 °F 42.1 °F 53% 30.00 in 10.0 mi WNW 17.3 mph - N/A   Clear
12:54 PM 60.1 °F 41.0 °F 49% 30.00 in 10.0 mi NW 16.1 mph 21.9 mph N/A   Clear
1:54 PM - - N/A% 29.98 in - North - - N/A   Unknown
2:54 PM 62.1 °F 37.0 °F 39% 29.97 in 10.0 mi West 11.5 mph 21.9 mph N/A   Clear
3:54 PM 62.1 °F 34.0 °F 35% 29.99 in 10.0 mi West 15.0 mph 27.6 mph N/A   Clear
4:54 PM 61.0 °F 36.0 °F 39% 30.00 in 10.0 mi WSW 10.4 mph - N/A   Clear
5:54 PM 59.0 °F 33.1 °F 38% 30.01 in 10.0 mi WSW 9.2 mph - N/A   Clear
6:54 PM 59.0 °F 34.0 °F 39% 30.02 in 10.0 mi West 10.4 mph - N/A   Clear
7:54 PM 57.9 °F 32.0 °F 37% 30.03 in 10.0 mi West 12.7 mph 18.4 mph N/A   Clear
8:54 PM 55.0 °F 34.0 °F 45% 30.04 in 10.0 mi NW 10.4 mph - N/A   Clear
9:54 PM 52.0 °F 34.0 °F 50% 30.06 in 10.0 mi NW 6.9 mph - N/A   Clear
10:54 PM 51.1 °F 34.0 °F 52% 30.07 in 10.0 mi West 4.6 mph - N/A   Clear
11:54 PM 48.9 °F 35.1 °F 59% 30.07 in 10.0 mi West 5.8 mph - N/A   Clear